Content
SEND FEEDBACK

Daily
Averages
Monthly
Summary
United States of America

ST. LOUIS, MISSOURI


Home > North America > United States > Missouri
Elevation: 535 feet     Latitude: 38 45N     Longitude: 090 22W

WEATHER
 
SELECT A DAY
Number of Records: 196,446;   Date Range: 1/1/95 - 8/12/14
 
SHARE

PRINT THIS DATA

[ ← Previous Day ]
WEATHER ALMANAC - MARCH 27, 2013
[ Next Day → ]
[ °C ]   °F
Weather ElementAverageHighLow
Temperature33.9 °F46.9 °F (3:54 pm)19 °F (6:54 am)
Dewpoint22.8 °F30.9 °F (10:54 pm)16 °F (5:54 am)
Humidity67.1 %92 % (7:54 am)34 % (3:54 pm)
Barometer30.38 in30.43 in (9:54 am)30.32 in (7:54 pm)
Wind Speed1.6 mph6.9 mph (6:54 pm)
Weather ElementAverage
Visibility10 mi
Wind DirectionNE (46.1 °)

Weather ElementTotal
Precipitation---
Heating Degree Days32.1 (Base 65)
Averaged from 23 records on March 27, 2013
WEATHER CONDITIONS BREAKOUT
WIND DIRECTION BREAKOUT
WEATHER BY HOUR - MARCH 27, 2013
[ °C ]   °F
Local TimeTemperatureDewpointHumidityBarometerVisibilityWind DirectionWind SpeedGust SpeedPrecipitationEventsConditions
1:54 AM23.0 °F19.0 °F85 %30.39 in10.0 miCalmClear
2:54 AM21.9 °F19.0 °F89 %30.38 in10.0 miCalmClear
3:54 AM21.0 °F18.0 °F88 %30.37 in10.0 miCalmClear
4:54 AM21.0 °F18.0 °F88 %30.39 in10.0 miCalmClear
5:54 AM19.9 °F16.0 °F85 %30.39 in10.0 miCalmClear
6:54 AM19.0 °F16.0 °F88 %30.40 in10.0 miCalmScattered Clouds
7:54 AM21.0 °F19.0 °F92 %30.42 in10.0 miCalmScattered Clouds
8:54 AM25.0 °F21.9 °F88 %30.42 in10.0 miCalmPartly Cloudy
9:54 AM32.0 °F26.1 °F79 %30.43 in10.0 miCalmPartly Cloudy
10:54 AM39.0 °F23.0 °F53 %30.42 in10.0 miNorth (360°)3.5 mphPartly Cloudy
11:54 AM39.9 °F23.0 °F51 %30.42 in10.0 miCalmScattered Clouds
12:54 PM41.0 °F23.0 °F49 %30.42 in10.0 miCalmScattered Clouds
1:54 PM43.0 °F23.0 °F45 %30.40 in10.0 miVariable3.5 mphMostly Cloudy
2:54 PM45.0 °F21.9 °F40 %30.37 in10.0 miWNW (290°)5.8 mphMostly Cloudy
3:54 PM46.9 °F19.9 °F34 %30.34 in10.0 miCalmMostly Cloudy
4:54 PM46.0 °F21.0 °F37 %30.33 in10.0 miCalmMostly Cloudy
5:54 PM43.0 °F26.1 °F51 %30.33 in10.0 miEast (80°)4.6 mphMostly Cloudy
6:54 PM39.9 °F27.0 °F60 %30.33 in10.0 miENE (60°)6.9 mphOvercast
7:54 PM39.9 °F28.0 °F63 %30.32 in10.0 miEast (100°)3.5 mphOvercast
8:54 PM39.0 °F28.0 °F65 %30.34 in10.0 miCalmMostly Cloudy
9:54 PM37.9 °F28.0 °F68 %30.35 in10.0 miEast (80°)4.6 mphOvercast
10:54 PM37.9 °F30.9 °F76 %30.35 in10.0 miCalmOvercast
11:54 PM37.9 °F28.9 °F70 %30.35 in10.0 miEast (90°)4.6 mph0.00 inOvercast
Hourly data recorded from KSUS, located miles away from St. Louis, Missouri







STORIES FROM OUR PARTNERS